This demonstration page uses our WeatherBlox Daily Observations layout. Learn more.

Left ArrowRight Arrow

Hourly Observations for July 17, 2018

Temp ( °F °C ) Dew Point ( °F °C ) Humidity (%) Winds ( mph kmh ) Pressure ( in mb ) Visibility ( mi km ) Precip ( " mm )
12:53 am 00:53 Clear 71 21.7 44 6.7 38 38 E 12 19 29.92 1013 10 16 0.00 0.00
1:53 am 01:53 Clear 67 19.4 46 7.8 47 47 ENE 12 19 29.92 1013 10 16 0.00 0.00
2:53 am 02:53 Clear 65 18.3 49 9.4 56 56 ENE 12 19 29.93 1013 10 16 0.00 0.00
3:53 am 03:53 Clear 64 17.8 49 9.4 58 58 ENE 12 19 29.92 1013 10 16 0.00 0.00
4:53 am 04:53 Clear 62 16.7 51 10.6 67 67 E 5 7 29.93 1014 10 16 0.00 0.00
5:53 am 05:53 Sunny 56 13.3 50 10 81 81 W 6 9 29.96 1015 10 16 0.00 0.00
6:53 am 06:53 Sunny 61 16.1 49 9.4 65 65 SW 5 7 29.96 1015 10 16 0.00 0.00
7:53 am 07:53 Sunny 66 18.9 50 10 56 56 Calm 29.96 1015 10 16 0.00 0.00
8:53 am 08:53 Sunny 72 22.2 52 11.1 50 50 Calm 29.96 1015 10 16 0.00 0.00
9:53 am 09:53 Sunny 77 25 54 12.2 45 45 E 6 9 29.95 1014 10 16 0.00 0.00
10:53 am 10:53 Sunny 82 27.8 55 12.8 40 40 VRB 5 7 29.94 1014 10 16 0.00 0.00
11:53 am 11:53 Sunny 87 30.6 54 12.2 32 32 VRB 3 6 29.93 1014 10 16 0.00 0.00
12:53 pm 12:53 Sunny 92 33.3 53 11.7 27 27 VRB 5 7 29.91 1013 10 16 0.00 0.00
1:53 pm 13:53 Sunny 94 34.4 47 8.3 20 20 SSE 6 9 29.88 1012 10 16 0.00 0.00
2:53 pm 14:53 Mostly Cloudy 96 35.6 47 8.3 19 19 undefined N/A 29.87 1012 10 16 0.00 0.00
3:53 pm 15:53 Mostly Cloudy with Light Rain 92 33.3 52 11.1 26 26 SE 7 11 29.87 1012 10 16 0.00 0.03
4:37 pm 16:37 Sunny with Nearby Thunderstorms 96 35.6 48 8.9 19 19 NNW 8 13 29.68 1005 10 16 0.00 0.03
4:53 pm 16:53 Sunny with Nearby Thunderstorms 96 35.6 48 8.9 19 19 WNW 8 13 29.85 1011 10 16 0.00 0.03
5:00 pm 17:00 Sunny 93 34 46 8 20 20 NW 6 9 29.71 1006 10 16 0.00 0.00
5:32 pm 17:32 Partly Cloudy with Nearby Thunderstorms 88 31 52 11 29 29 S 14 22 29.71 1006 10 16 0.00 0.00
5:53 pm 17:53 Sunny with Nearby Thunderstorms 86 30 48 8.9 27 27 SSW 24 39 29.88 1012 10 16 0.00 0.00
6:03 pm 18:03 Sunny 84 28.9 51 10.6 32 32 SSW 18 30 29.74 1007 10 16 0.00 0.00
6:53 pm 18:53 Sunny 79 26.1 53 11.7 41 41 S 6 9 29.87 1012 10 16 0.00 0.00
7:53 pm 19:53 Sunny 82 27.8 50 10 33 33 S 7 11 29.86 1011 10 16 0.00 0.00
8:53 pm 20:53 Partly Cloudy 80 26.7 48 8.9 33 33 SSW 6 9 29.86 1011 10 16 0.00 0.00
9:53 pm 21:53 Clear 72 22.2 51 10.6 48 48 S 7 11 29.87 1012 10 16 0.00 0.00
10:53 pm 22:53 Clear 73 22.8 48 8.9 41 41 Calm 29.86 1011 10 16 0.00 0.00
11:53 pm 23:53 Mostly Clear 69 20.6 51 10.6 53 53 Calm 29.86 1011 10 16 0.00 0.00

Powered by AerisWeather